GW2822 Weather Reports


time (UTC)temp
C
wind
direction
speed
KPH
gust
KPH
rain 1hr
cm
rain 24hr
cm
rain mn
cm
humidity
%
barometer
mb
20260508182510 23 116 4.8 11.3 0.00 0.00 0.00 81 1009.3
20260508182024 23 111 1.6 11.3 0.00 0.00 0.00 81 1009.4
20260508181551 23 134 3.2 11.3 0.00 0.00 0.00 81 1009.5
20260508181049 23 180 3.2 11.3 0.00 0.00 0.00 81 1009.6
20260508180507 23 144 3.2 11.3 0.00 0.00 0.00 81 1009.6
20260508180059 23 130 4.8 11.3 0.00 0.00 0.00 81 1009.7
20260508175514 23 175 0.0 12.9 0.00 0.00 0.00 81 1009.9
20260508175030 23 150 4.8 12.9 0.00 0.00 0.00 80 1010.0
20260508174539 23 205 4.8 12.9 0.00 0.00 0.00 80 1009.9
20260508174055 23 144 3.2 11.3 0.00 0.00 0.00 80 1009.8
20260508173511 23 178 1.6 9.7 0.00 0.00 0.00 81 1009.8
20260508173028 23 193 4.8 9.7 0.00 0.00 0.00 81 1009.8
20260508172539 23 221 3.2 8.0 0.00 0.00 0.00 81 1009.8
20260508172053 23 198 3.2 9.7 0.00 0.00 0.00 82 1009.9
20260508171505 23 164 3.2 9.7 0.00 0.00 0.00 82 1010.0
20260508171018 22 165 1.6 6.4 0.00 0.00 0.00 82 1010.0
20260508170529 22 140 1.6 6.4 0.00 0.00 0.00 83 1010.1
20260508170023 22 133 3.2 6.4 0.00 0.00 0.00 84 1010.2
20260508165532 22 77 0.0 4.8 0.00 0.00 0.00 83 1010.2
20260508165046 21 271 1.6 4.8 0.00 0.00 0.00 84 1010.2
20260508164559 21 190 0.0 3.2 0.00 0.00 0.00 85 1010.3
20260508164505 21 189 0.0 3.2 0.00 0.00 0.00 84 1010.3
20260508164015 21 283 0.0 1.6 0.00 0.00 0.00 85 1010.3
20260508163528 20 293 0.0 4.8 0.00 0.00 0.00 85 1010.5
20260508163046 20 294 0.0 4.8 0.00 0.00 0.00 86 1010.5
20260508162555 20 227 0.0 8.0 0.00 0.00 0.00 86 1010.6
20260508162006 20 222 4.8 8.0 0.00 0.00 0.00 87 1010.7
20260508161517 20 222 0.0 8.0 0.00 0.00 0.00 87 1010.9
20260508161027 19 184 0.0 6.4 0.00 0.00 0.00 87 1011.0
20260508160543 18 188 0.0 6.4 0.00 0.00 0.00 87 1011.0
20260508160057 18 196 1.6 6.4 0.00 0.00 0.00 88 1011.2
20260508155545 18 277 1.6 4.8 0.00 0.00 0.00 88 1011.4
20260508155059 18 73 0.0 4.8 0.00 0.00 0.00 88 1011.4
20260508155002 18 73 0.0 3.2 0.00 0.00 0.00 88 1011.4
20260508154516 17 131 0.0 3.2 0.00 0.00 0.00 88 1011.6
20260508154030 17 160 0.0 3.2 0.00 0.00 0.00 89 1011.8
20260508153543 17 119 0.0 3.2 0.00 0.00 0.00 89 1011.8
20260508153053 17 83 0.0 4.8 0.00 0.00 0.00 89 1011.8
20260508152512 17 82 1.6 4.8 0.00 0.00 0.00 89 1011.8
20260508152021 17 96 0.0 4.8 0.00 0.00 0.00 88 1011.8
20260508151533 16 111 0.0 3.2 0.00 0.00 0.00 88 1011.9
20260508151043 16 160 0.0 3.2 0.00 0.00 0.00 88 1011.9
20260508150556 16 160 0.0 3.2 0.00 0.00 0.00 88 1012.0
20260508150047 16 150 0.0 3.2 0.00 0.00 0.00 88 1012.0
20260508145505 16 150 0.0 3.2 0.00 0.00 0.00 88 1011.9
20260508145020 16 44 0.0 3.2 0.00 0.00 0.00 88 1012.0
20260508144530 16 44 0.0 3.2 0.00 0.00 0.00 88 1012.1
20260508144042 16 44 0.0 3.2 0.00 0.00 0.00 87 1012.3
20260508143557 16 44 0.0 4.8 0.00 0.00 0.00 88 1012.3
20260508143021 16 42 0.0 6.4 0.00 0.00 0.00 87 1012.2
20260508142525 16 47 1.6 6.4 0.00 0.00 0.00 88 1012.1
20260508142042 16 32 3.2 6.4 0.00 0.00 0.00 88 1012.0
20260508141556 16 360 0.0 4.8 0.00 0.00 0.00 88 1012.0
20260508141006 16 360 0.0 6.4 0.00 0.00 0.00 88 1012.1
20260508140518 16 360 0.0 4.8 0.00 0.00 0.00 88 1012.1
20260508140018 16 355 0.0 4.8 0.00 0.00 0.00 88 1011.9
20260508135523 16 355 0.0 6.4 0.00 0.00 0.00 88 1011.8
20260508135038 15 338 1.6 6.4 0.00 0.00 0.00 88 1011.9
20260508134546 15 24 0.0 3.2 0.00 0.00 0.00 88 1011.9
20260508134006 15 24 0.0 4.8 0.00 0.00 0.00 88 1012.0
20260508133518 15 24 1.6 4.8 0.00 0.00 0.00 88 1011.9
20260508133040 15 32 0.0 4.8 0.00 0.00 0.00 88 1011.9
20260508132544 15 34 1.6 4.8 0.00 0.00 0.00 88 1011.9
20260508132058 15 35 0.0 3.2 0.00 0.00 0.00 88 1011.9
20260508131510 15 35 0.0 3.2 0.00 0.00 0.00 88 1011.8
20260508131024 15 35 0.0 1.6 0.00 0.00 0.00 88 1011.9
20260508130536 15 35 0.0 3.2 0.00 0.00 0.00 88 1012.1
20260508130032 15 36 0.0 6.4 0.00 0.00 0.00 88 1012.0
20260508125548 15 42 1.6 6.4 0.00 0.00 0.00 88 1012.0
20260508125058 15 46 1.6 8.0 0.00 0.00 0.00 88 1011.9
20260508124514 15 53 3.2 8.0 0.00 0.00 0.00 88 1012.1
20260508124025 15 54 1.6 6.4 0.00 0.00 0.00 88 1012.3
20260508123540 15 37 1.6 8.0 0.00 0.00 0.00 87 1012.3
20260508123050 15 54 1.6 6.4 0.00 0.00 0.00 87 1012.2
20260508122511 15 348 0.0 8.0 0.00 0.00 0.00 87 1012.4
20260508122018 15 350 3.2 8.0 0.00 0.00 0.00 87 1011.9
20260508121553 15 5 3.2 8.0 0.00 0.00 0.00 87 1012.0
20260508121043 15 355 1.6 3.2 0.00 0.00 0.00 87 1012.4
20260508120557 15 44 0.0 1.6 0.00 0.00 0.00 87 1012.4
20260508120056 15 44 0.0 3.2 0.00 0.00 0.00 87 1012.3
20260508115508 15 44 0.0 1.6 0.00 0.00 0.00 86 1012.2
20260508115021 15 44 0.0 1.6 0.00 0.00 0.00 86 1012.2
20260508114537 15 44 0.0 1.6 0.00 0.00 0.00 86 1012.2
20260508114052 15 44 0.0 1.6 0.00 0.00 0.00 86 1012.2
20260508113512 15 44 0.0 1.6 0.00 0.00 0.00 86 1012.4
20260508113022 15 44 0.0 1.6 0.00 0.00 0.00 85 1012.5
20260508112541 15 44 0.0 3.2 0.00 0.00 0.00 85 1012.4
20260508112053 15 44 0.0 4.8 0.00 0.00 0.00 85 1012.4
20260508111510 15 45 1.6 4.8 0.00 0.00 0.00 85 1012.2
20260508111022 15 63 0.0 4.8 0.00 0.00 0.00 85 1012.2
20260508110535 15 19 0.0 3.2 0.00 0.00 0.00 84 1012.3
20260508110031 15 338 0.0 4.8 0.00 0.00 0.00 84 1012.6
20260508105541 15 337 0.0 4.8 0.00 0.00 0.00 84 1012.7
20260508105058 15 337 0.0 3.2 0.00 0.00 0.00 84 1012.8
20260508104515 15 333 0.0 4.8 0.00 0.00 0.00 84 1012.9
20260508104025 15 332 0.0 4.8 0.00 0.00 0.00 84 1012.7
20260508103543 15 336 0.0 8.0 0.00 0.00 0.00 84 1012.6
20260508103100 15 336 1.6 8.0 0.00 0.00 0.00 83 1012.4
20260508103012 15 336 1.6 8.0 0.00 0.00 0.00 83 1012.4
20260508102513 15 40 3.2 8.0 0.00 0.00 0.00 84 1012.3
20260508102033 15 346 3.2 8.0 0.00 0.00 0.00 84 1012.4
20260508101545 15 339 4.8 8.0 0.00 0.00 0.00 83 1012.4
20260508101006 15 333 1.6 4.8 0.00 0.00 0.00 84 1012.4
20260508100518 15 9 0.0 6.4 0.00 0.00 0.00 84 1012.3
20260508100013 15 11 0.0 6.4 0.00 0.00 0.00 84 1012.2
20260508095525 15 355 1.6 4.8 0.00 0.00 0.00 84 1012.1
20260508095038 15 355 0.0 3.2 0.00 0.00 0.00 84 1012.0
20260508094603 15 334 0.0 3.2 0.00 0.00 0.00 84 1012.1
20260508094007 15 333 1.6 4.8 0.00 0.00 0.00 84 1012.2
20260508093519 15 38 1.6 4.8 0.00 0.00 0.00 84 1012.2
20260508093033 15 42 0.0 3.2 0.00 0.00 0.00 84 1012.2
20260508092545 15 42 0.0 3.2 0.00 0.00 0.00 84 1012.3
20260508092100 15 42 0.0 3.2 0.00 0.00 0.00 84 1012.3
20260508092002 15 42 0.0 3.2 0.00 0.00 0.00 84 1012.3
20260508091514 15 42 0.0 1.6 0.00 0.00 0.00 84 1012.3
20260508091029 15 42 0.0 1.6 0.00 0.00 0.00 84 1012.3
20260508090539 15 42 0.0 1.6 0.00 0.00 0.00 83 1012.4
20260508090033 15 42 0.0 0.0 0.00 0.00 0.00 83 1012.4
20260508085548 15 42 0.0 0.0 0.00 0.00 0.00 83 1012.3
20260508085100 15 42 0.0 0.0 0.00 0.00 0.00 83 1012.4
20260508085002 15 42 0.0 0.0 0.00 0.00 0.00 83 1012.4
20260508084515 15 42 0.0 0.0 0.00 0.00 0.00 83 1012.4
20260508084033 15 42 0.0 0.0 0.00 0.00 0.00 83 1012.4
20260508083546 15 42 0.0 1.6 0.00 0.00 0.00 83 1012.4
20260508083148 15 42 0.0 1.6 0.00 0.00 0.00 83 1012.3
20260508083015 15 42 0.0 1.6 0.00 0.00 0.00 83 1012.3
20260508082518 15 42 0.0 0.0 0.00 0.00 0.00 83 1012.5
20260508082033 15 42 0.0 0.0 0.00 0.00 0.00 83 1012.6
20260508081546 15 42 0.0 1.6 0.00 0.00 0.00 83 1012.7
20260508081058 15 42 0.0 1.6 0.00 0.00 0.00 83 1012.8
20260508081001 15 42 0.0 0.0 0.00 0.00 0.00 83 1012.8
20260508080510 15 42 0.0 0.0 0.00 0.00 0.00 83 1012.7
20260508080005 15 42 0.0 0.0 0.00 0.00 0.00 83 1012.7
20260508075521 15 42 0.0 0.0 0.00 0.00 0.00 83 1012.6
20260508075037 15 42 0.0 0.0 0.00 0.00 0.00 83 1012.8
20260508074546 15 42 0.0 0.0 0.00 0.00 0.00 82 1012.9
20260508074010 15 42 0.0 1.6 0.00 0.00 0.00 82 1012.7
20260508073521 15 42 0.0 1.6 0.00 0.00 0.00 82 1012.8
20260508073035 15 42 0.0 0.0 0.00 0.00 0.00 82 1012.8
20260508072550 15 42 0.0 0.0 0.00 0.00 0.00 82 1012.8
20260508072005 15 42 0.0 1.6 0.00 0.00 0.00 82 1012.8
20260508071530 15 42 0.0 1.6 0.00 0.00 0.00 82 1012.8
20260508071033 15 42 0.0 0.0 0.00 0.00 0.00 82 1012.9
20260508070546 15 42 0.0 0.0 0.00 0.00 0.00 82 1013.0
20260508070039 15 42 0.0 0.0 0.00 0.00 0.00 82 1013.0
20260508065552 15 42 0.0 1.6 0.00 0.00 0.00 82 1012.8
20260508065006 15 42 0.0 6.4 0.00 0.00 0.00 82 1012.9
20260508064540 15 42 0.0 6.4 0.00 0.00 0.00 82 1012.7
20260508064036 15 45 0.0 1.6 0.00 0.00 0.00 83 1012.9
20260508063551 15 53 0.0 4.8 0.00 0.00 0.00 83 1012.7
20260508063101 15 53 0.0 6.4 0.00 0.00 0.00 83 1012.8
20260508063002 15 53 0.0 6.4 0.00 0.00 0.00 83 1012.7
20260508062518 15 49 3.2 6.4 0.00 0.00 0.00 83 1012.4
20260508062027 15 337 0.0 3.2 0.00 0.00 0.00 83 1012.8
20260508061544 15 303 0.0 3.2 0.00 0.00 0.00 83 1013.2
20260508061055 15 298 0.0 1.6 0.00 0.00 0.00 83 1013.1
20260508061003 15 298 0.0 1.6 0.00 0.00 0.00 83 1013.2
20260508060513 15 298 0.0 0.0 0.00 0.00 0.00 83 1013.3
20260508060008 15 298 0.0 0.0 0.00 0.00 0.00 82 1013.5
20260508055516 15 298 0.0 0.0 0.00 0.00 0.00 82 1013.3
20260508055034 15 298 0.0 1.6 0.00 0.00 0.00 82 1013.2
20260508054543 15 298 0.0 3.2 0.00 0.00 0.00 81 1013.3
20260508054058 16 298 0.0 4.8 0.00 0.00 0.00 81 1013.3
20260508053510 16 298 0.0 4.8 0.00 0.00 0.00 80 1013.4
20260508053027 16 19 0.0 4.8 0.00 0.00 0.00 80 1013.1
20260508052537 16 19 0.0 4.8 0.00 0.00 0.00 80 1013.0
20260508052050 16 336 0.0 1.6 0.00 0.00 0.00 80 1013.3
20260508051600 16 336 0.0 0.0 0.00 0.00 0.00 80 1013.5
20260508051502 16 336 0.0 0.0 0.00 0.00 0.00 80 1013.6
20260508051016 16 336 0.0 3.2 0.00 0.00 0.00 80 1013.6
20260508050527 16 336 0.0 3.2 0.00 0.00 0.00 80 1013.8
20260508050025 16 336 0.0 1.6 0.00 0.00 0.00 79 1013.6
20260508045539 16 336 0.0 4.8 0.00 0.00 0.00 79 1013.6
20260508045051 16 336 0.0 4.8 0.00 0.00 0.00 80 1013.8
20260508044508 16 355 0.0 4.8 0.00 0.00 0.00 80 1013.7
20260508044021 16 338 0.0 4.8 0.00 0.00 0.00 80 1013.5
20260508043533 15 338 0.0 3.2 0.00 0.00 0.00 80 1013.4
20260508043046 15 330 0.0 6.4 0.00 0.00 0.00 80 1013.5
20260508042503 15 299 0.0 6.4 0.00 0.00 0.00 81 1013.7
20260508042015 16 5 3.2 8.0 0.00 0.00 0.00 81 1013.3
20260508041529 16 343 1.6 8.0 0.00 0.00 0.00 81 1013.3
20260508041045 16 50 1.6 6.4 0.00 0.00 0.00 81 1012.5
20260508040556 16 42 0.0 8.0 0.00 0.00 0.00 81 1012.7
20260508040048 16 51 1.6 11.3 0.00 0.00 0.00 81 1012.7
20260508035511 16 46 4.8 11.3 0.00 0.00 0.00 81 1012.5
20260508035029 16 66 4.8 9.7 0.00 0.00 0.00 80 1012.4
20260508034538 16 58 1.6 4.8 0.00 0.00 0.00 81 1012.7
20260508034057 16 349 0.0 1.6 0.00 0.00 0.00 81 1013.0
20260508033510 16 349 0.0 0.0 0.00 0.00 0.00 80 1013.3
20260508033025 16 349 0.0 1.6 0.00 0.00 0.00 80 1013.6
20260508032536 16 349 0.0 1.6 0.00 0.00 0.00 80 1013.7
20260508032050 16 349 0.0 1.6 0.00 0.00 0.00 80 1013.7
20260508031608 16 349 0.0 3.2 0.00 0.00 0.00 80 1013.9
20260508031501 16 349 0.0 3.2 0.00 0.00 0.00 80 1014.0
20260508031015 16 349 0.0 3.2 0.00 0.00 0.00 80 1014.0
20260508030525 16 259 0.0 0.0 0.00 0.00 0.00 79 1014.0
20260508030019 16 259 0.0 1.6 0.00 0.00 0.00 79 1014.3
20260508025536 16 259 0.0 1.6 0.00 0.00 0.00 79 1014.4
20260508025048 16 259 0.0 1.6 0.00 0.00 0.00 78 1014.5
20260508024505 16 259 0.0 3.2 0.00 0.00 0.00 79 1014.4
20260508024015 16 259 0.0 4.8 0.00 0.00 0.00 79 1014.5
20260508023532 16 261 0.0 4.8 0.00 0.00 0.00 79 1014.4
20260508023042 16 261 1.6 6.4 0.00 0.00 0.00 79 1014.0
20260508022557 16 277 1.6 6.4 0.00 0.00 0.00 79 1013.9
20260508022018 16 268 3.2 6.4 0.00 0.00 0.00 78 1013.5
20260508021531 16 290 0.0 3.2 0.00 0.00 0.00 77 1012.9
20260508021049 17 24 0.0 3.2 0.00 0.00 0.00 77 1012.3
20260508020502 17 42 0.0 3.2 0.00 0.00 0.00 76 1012.2
20260508020057 17 42 0.0 3.2 0.00 0.00 0.00 77 1012.1
20260508015510 17 42 0.0 6.4 0.00 0.00 0.00 76 1011.7
20260508015027 17 36 1.6 6.4 0.00 0.00 0.00 75 1011.8
20260508014539 17 346 1.6 6.4 0.00 0.00 0.00 75 1012.2
20260508014055 17 351 1.6 6.4 0.00 0.00 0.00 75 1012.1
20260508013507 17 5 1.6 11.3 0.00 0.00 0.00 75 1012.0
20260508013021 17 86 4.8 11.3 0.00 0.00 0.00 75 1011.4
20260508012535 17 78 1.6 6.4 0.00 0.00 0.00 75 1011.7
20260508012049 17 30 1.6 9.7 0.00 0.00 0.00 74 1011.9
20260508011610 17 64 4.8 9.7 0.00 0.00 0.00 74 1011.8
20260508011508 17 71 4.8 9.7 0.00 0.00 0.00 74 1011.7
20260508011015 17 49 3.2 8.0 0.00 0.00 0.00 74 1011.8
20260508010535 17 345 3.2 12.9 0.00 0.00 0.00 74 1012.1
20260508010033 17 80 4.8 12.9 0.00 0.00 0.00 74 1011.9
20260508005541 17 97 3.2 8.0 0.00 0.00 0.00 74 1011.8
20260508005056 17 61 1.6 8.0 0.00 0.00 0.00 73 1012.3
20260508004513 17 331 1.6 8.0 0.00 0.00 0.00 73 1012.5
20260508004025 17 44 3.2 14.5 0.00 0.00 0.00 73 1011.8
20260508003539 17 315 1.6 14.5 0.00 0.00 0.00 73 1012.5
20260508003101 17 350 4.8 14.5 0.00 0.00 0.00 73 1011.7
20260508002506 18 43 6.4 14.5 0.00 0.00 0.00 73 1011.4
20260508002020 18 322 9.7 14.5 0.00 0.00 0.00 73 1012.1
20260508001538 18 74 6.4 11.3 0.00 0.00 0.00 73 1011.1
20260508001042 18 85 0.0 9.7 0.00 0.00 0.00 73 1012.1
20260508000557 18 90 3.2 9.7 0.00 0.00 0.00 73 1012.3
20260508000048 18 68 4.8 9.7 0.00 0.00 0.00 73 1012.2
20260507235505 18 327 3.2 9.7 0.00 0.00 0.00 73 1012.6
20260507235024 18 90 4.8 9.7 0.00 0.00 0.00 72 1012.6
20260507234533 18 53 3.2 12.9 0.00 0.00 0.00 72 1012.7
20260507234048 18 89 8.0 12.9 0.00 0.00 0.00 71 1012.6
20260507233600 18 82 3.2 9.7 0.00 0.00 0.00 72 1012.7
20260507233503 18 61 3.2 9.7 0.00 0.00 0.00 71 1012.8
20260507233021 18 59 3.2 8.0 0.00 0.00 0.00 70 1013.3
20260507232533 18 24 0.0 8.0 0.00 0.00 0.00 71 1013.6
20260507232048 18 63 3.2 8.0 0.00 0.00 0.00 69 1013.6
20260507231502 18 57 3.2 8.0 0.00 0.00 0.00 71 1013.9
20260507231016 18 346 0.0 8.0 0.00 0.00 0.00 70 1014.0
20260507230532 18 355 3.2 8.0 0.00 0.00 0.00 71 1013.7
20260507230026 18 45 3.2 8.0 0.00 0.00 0.00 71 1013.5
20260507225540 18 16 1.6 8.0 0.00 0.00 0.00 72 1013.5
20260507225055 18 66 3.2 8.0 0.00 0.00 0.00 72 1013.6
20260507224515 18 61 0.0 11.3 0.00 0.00 0.00 71 1013.6
20260507224020 18 49 4.8 12.9 0.00 0.00 0.00 71 1013.6
20260507223541 18 348 1.6 9.7 0.00 0.00 0.00 71 1013.7
20260507223048 18 360 3.2 9.7 0.00 0.00 0.00 69 1014.1
20260507222506 18 9 1.6 9.7 0.00 0.00 0.00 69 1014.2
20260507222016 18 333 1.6 14.5 0.00 0.00 0.00 68 1014.4
20260507221530 18 13 3.2 16.1 0.00 0.00 0.00 68 1014.3
20260507221044 18 84 9.7 16.1 0.00 0.00 0.00 68 1013.7
20260507220556 18 51 6.4 16.1 0.00 0.00 0.00 69 1013.9
20260507220054 18 28 8.0 16.1 0.00 0.00 0.00 68 1013.9
20260507215509 18 11 8.0 19.3 0.00 0.00 0.00 69 1014.0
20260507215024 18 49 4.8 14.5 0.00 0.00 0.00 70 1014.1
20260507214536 18 349 6.4 14.5 0.00 0.00 0.00 69 1014.5
20260507214053 18 19 4.8 16.1 0.00 0.00 0.00 69 1014.5
20260507213505 18 18 6.4 19.3 0.00 0.00 0.00 67 1014.6
20260507213029 18 40 6.4 19.3 0.00 0.00 0.00 68 1014.4
20260507212539 18 21 3.2 16.1 0.00 0.00 0.00 68 1014.5
20260507212050 18 42 6.4 16.1 0.00 0.00 0.00 68 1014.4
20260507211504 18 360 6.4 16.1 0.00 0.00 0.00 69 1014.2
20260507211018 18 49 6.4 19.3 0.00 0.00 0.00 68 1014.3
20260507210528 18 42 9.7 19.3 0.00 0.00 0.00 68 1014.7
20260507210028 18 10 8.0 17.7 0.00 0.00 0.00 68 1014.7
20260507205542 18 355 3.2 22.5 0.00 0.00 0.00 70 1014.7
20260507205051 18 44 9.7 22.5 0.00 0.00 0.00 70 1014.2
20260507204510 18 5 11.3 20.9 0.00 0.00 0.00 68 1014.2
20260507204022 18 49 9.7 19.3 0.00 0.00 0.00 70 1014.3
20260507203538 18 360 9.7 19.3 0.00 0.00 0.00 71 1014.5
20260507203048 18 22 4.8 19.3 0.00 0.00 0.00 72 1014.6
20260507202507 18 23 6.4 22.5 0.00 0.00 0.00 72 1014.2
20260507202020 17 355 9.7 27.4 0.00 0.00 0.00 72 1013.9
20260507201540 17 18 11.3 27.4 0.00 0.00 0.00 71 1013.9
20260507201053 17 57 11.3 22.5 0.00 0.00 0.00 71 1014.1
20260507200508 17 38 12.9 22.5 0.00 0.00 0.00 71 1014.3
20260507200001 18 59 11.3 19.3 0.00 0.00 0.00 72 1014.9
20260507195511 18 68 3.2 19.3 0.00 0.00 0.00 74 1015.0
20260507195028 17 10 9.7 19.3 0.00 0.00 0.00 73 1014.7
20260507194538 17 40 8.0 24.1 0.00 0.00 0.00 73 1014.8
20260507194053 17 37 14.5 25.7 0.00 0.00 0.00 73 1014.7
20260507193505 17 5 11.3 25.7 0.00 0.00 0.00 72 1014.9
20260507193026 17 17 12.9 24.1 0.00 0.00 0.00 74 1015.0
20260507192531 17 60 11.3 19.3 0.00 0.00 0.00 74 1015.0
20260507192049 17 350 9.7 22.5 0.00 0.00 0.00 75 1015.2
20260507191504 17 64 6.4 25.7 0.00 0.00 0.00 75 1014.9
20260507191019 17 42 11.3 25.7 0.00 0.00 0.00 76 1015.0
20260507190530 17 360 8.0 24.1 0.00 0.00 0.00 78 1015.1
20260507190035 17 24 12.9 22.5 0.00 0.00 0.00 78 1014.9
20260507185535 17 32 9.7 19.3 0.00 0.00 0.00 82 1015.2
20260507185049 16 20 11.3 19.3 0.00 0.00 0.00 82 1015.2
20260507184559 16 56 6.4 20.9 0.00 0.00 0.00 83 1015.2
20260507184502 16 30 8.0 20.9 0.00 0.00 0.00 83 1015.2
20260507184015 16 27 9.7 19.3 0.00 0.00 0.00 83 1015.4
20260507183527 16 71 9.7 16.1 0.00 0.00 0.00 84 1015.6
20260507183045 16 53 4.8 16.1 0.00 0.00 0.00 84 1015.7